Location: ???????????
(55.5758°N, 38.4970°E)
Time: 18:29:44
(UTC+00:00)

CZ-4 R/B - Pass Details

Date: 15 November 2025
Orbit: 675 x 744 km, 98.7° (Epoch: 14 December)

Event Time Altitude Azimuth Distance (km) Brightness Sun altitude
Rises 02:31:11 0° 17° (NNE) 3,166 7.4 -20.7°
Reaches altitude 10° 02:33:30 10° 21° (NNE) 2,230 6.6 -20.4°
Maximum altitude 02:38:22 65° 103° (ESE) 789 4.2 -19.7°
Drops below altitude 10° 02:43:06 10° 186° (S) 2,169 6.3 -19.0°
Sets 02:45:20 0° 189° (S) 3,072 7.1 -18.7°
